Overview Statistics Trail Chart Weather Telemetry Raw packets
 

This is the latest recevied weather packets stored in our database for station/object WX5KDM. If no packets are shown the sender has not sent any weather packets the latest 10 day(s).

<< 80 81 82 83 84 85 86 >>
Time Temp. Humidity Pressure Rain* Wind** Luminosity Snow
1788037810 35° C 39% 1017.6 hPa 0 mm - - -
1788037510 34.44° C 41% 1017.5 hPa 0 mm - - -
1788037205 34.44° C 43% 1017.4 hPa 0 mm - - -
1788036904 35° C 41% 1017.5 hPa 0 mm - - -
1788036601 35.56° C 44% 1017.6 hPa 0 mm - - -
1788036296 35° C 42% 1017.5 hPa 0 mm - - -
1788035991 35° C 41% 1017.9 hPa 0 mm - - -
1788035690 35° C 42% 1017.9 hPa 0 mm - - -
1788035386 35° C 42% 1017.8 hPa 0 mm - - -
1788035082 35.56° C 43% 1017.9 hPa 0 mm - - -
1788034777 34.44° C 44% 1017.9 hPa 0 mm - - -
1788034474 35° C 44% 1018.3 hPa 0 mm - - -
1788034170 34.44° C 43% 1018.3 hPa 0 mm - - -
1788033868 34.44° C 44% 1018.3 hPa 0 mm - - -
1788033568 34.44° C 43% 1018.3 hPa 0 mm - - -
1788033263 33.33° C 46% 1018.3 hPa 0 mm - - -
1788032959 33.33° C 47% 1018.4 hPa 0 mm - - -
1788032658 32.78° C 47% 1018.5 hPa 0 mm - - -
1788032354 32.22° C 47% 1018.6 hPa 0 mm - - -
1788032054 32.78° C 49% 1018.5 hPa 0 mm - - -
1788031750 32.78° C 46% 1018.6 hPa 0 mm - - -
1788031444 33.89° C 47% 1018.5 hPa 0 mm - - -
1788031139 33.33° C 46% 1018.6 hPa 0 mm - - -
1788030837 33.33° C 46% 1018.7 hPa 0 mm - - -
1788030532 33.89° C 45% 1018.7 hPa 0 mm - - -

* Rain latest hour (hover to see other rain measurements)
** Current wind speed in m/s (hover to see current wind gust speed)